sat.trackr.live / text

‹ back to catalog

MMS 3

NORAD 40484 · 2015-011C

PAYLOAD ACTIVE UNKNOWN

§ Identity

Operator
Country
US
Launch date
2015-03-13
Launch site
AFETR
Launch vehicle
Mass (kg)
RCS (m²)
2.66

Purposes: science

External: N2YO · Heavens-Above · Gunter

§ Orbital elements

Epoch: 2026-09-20T06:00:02.000160Z

Period
5,085.81 min
Inclination
72.8971°
Eccentricity
0.8251963
Mean motion
0.28314085 rev/d
Perigee alt
10,746.3 km
Apogee alt
172,425.5 km
Semi-major
97,964.1 km
B*
0.0000e+0
RAAN
347.7311°
Arg perigee
169.4050°
Mean anomaly
276.1119°
Rev number
139

§ Raw data

MMS 31 40484U 15011C   26263.25002315 -.00001960  00000+0  00000+0 0  99902 40484  72.8971 347.7311 8251963 169.4050 276.1119  0.28314085  1392

JSON: /api/v1/satellites/40484 · /tle

For live sub-satellite position, see the globe view (requires WebGL).

§ Visibility from observer

Set your observer location to see the next 7 days of passes ≥ 10°. The values pass through the URL so the page stays shareable.

No JS? Fill the form by hand. The geolocation button needs JavaScript.